Regional Weather Roundup
Issued by NWS Bismarck, ND

Home | Current Version | Previous Version | Text Only | Print | Product List | Glossary On
Versions: 1 2 3 4 5 6 7 8 9 10 11 12 13 14 15 16 17 18 19 20 21 22 23 24 25 26 27 28 29 30 31 32 33 34 35 36 37 38 39 40 41 42 43 44 45 46 47 48 49 50
000
ASUS43 KBIS 250010
RWRBIS

NWR BROADCAST TEXT
NATIONAL WEATHER SERVICE BISMARCK ND
700 PM CDT FRI OCT 24 2014

NOTE: "FAIR" INDICATES FEW OR NO CLOUDS BELOW 12,000 FEET WITH NO
SIGNIFICANT WEATHER AND/OR OBSTRUCTIONS TO VISIBILITY.


CITY           SKY/WX    TMP DP  RH WIND       PRES   REMARKS
WILLISTON      MOCLDY    52  27  38 W6        29.98R
MINOT          CLEAR     57  26  30 W16       29.91R
MINOT AFB      CLEAR     53  29  40 W10       29.90R
BISMARCK       MOCLDY    62  35  36 W10       29.97R
DICKINSON      CLOUDY    50  29  44 SW10      30.00S
GARRISON         N/A     53  31  42 W9        29.95R
HETTINGER ARPT CLOUDY    54  33  45 W7        30.05R
JAMESTOWN      PTCLDY    57  34  41 W10       29.90R
BEACH            N/A     48  28  46 NW9       30.05R
CARRINGTON     FAIR      55  32  41 W13       29.90R
CROSBY         FAIR      50  28  43 W12       29.95R
HARVEY         FAIR      57  28  33 W12       29.90R
HAZEN          FAIR      55  28  35 W9        29.98R
LINTON         MOCLDY    61  37  41 NW8       29.97R
MANDAN         MOCLDY    55  37  50 W9        29.98R
OAKES            N/A     64  39  39 NW14G22   29.91R
RUGBY          FAIR      50  36  57 W9        29.88R
STANLEY        FAIR      46  30  53 W9        29.95R
TIOGA          FAIR      46  28  49 W10       29.99R
$$

CITY           SKY/WX    TMP DP  RH WIND       PRES   REMARKS
GRAND FORKS    PTCLDY    62  32  32 W12G20    29.80R
GRAND FORKS AF PTCLDY    62  32  32 W10       29.82R
DEVILS LAKE    PTCLDY    57  32  38 W13       29.84R
FARGO          MOCLDY    66  38  35 W16       29.84R
CANDO          FAIR      54  32  43 NW15      29.85R
CAVALIER       FAIR      59  36  41 W15       29.77R
GRAFTON        FAIR      61  36  39 W15G21    29.78R
GWINNER        CLEAR     66  39  37 NW17      29.90R
LANGDON        FAIR      55  32  41 W18       29.81R
ROLLA          FAIR      55  32  41 W14G22    29.85R
WALHALLA         N/A     59  34  38 NW14G21   29.78R
$$

CITY           SKY/WX    TMP DP  RH WIND       PRES   REMARKS
ABERDEEN       CLEAR     66  40  38 W8        29.93R
MOBRIDGE       CLOUDY    65  37  35 NW8       29.96R
BUFFALO          N/A     57  29  34 NW9       30.01R
RAPID CITY     CLEAR     58  39  49 N8        30.04S
GLASGOW        PTCLDY    54  27  35 NW12      30.02R
SIDNEY         MOCLDY    57  27  30 W12       30.03R
WOLF POINT     PTCLDY    56  29  35 W12       30.01R
GLENDIVE       PTCLDY    48  30  49 W8        30.05R
MILES CITY     CLOUDY    57  32  38 CALM      30.06S
BAKER          CLOUDY    53  31  42 SW8       30.06S
$$

CITY           SKY/WX    TMP DP  RH WIND       PRES   REMARKS
BILLINGS       CLOUDY    56  37  49 NE5       30.08R
GREAT FALLS    CLOUDY    53  34  48 SW12      30.04S
REGINA         PTCLDY    48  34  57 W16       29.91R
ESTEVAN        PTCLDY    50  30  46 W12       29.93R
$$




USA.gov is the U.S. government's official web portal to all federal, state and local government web resources and services.